Location: City of Moscow
(46.7306°N, 116.9989°W)
Time: 21:34:52
(UTC+00:00)

ARIANE 5 R/B - Pass Details

Date: 11 December 2025
Orbit: 747 x 792 km, 98.8° (Epoch: 11 January)

Event Time Altitude Azimuth Distance (km) Brightness Sun altitude
Rises 14:19:51 0° 16° (NNE) 3,295 5.7 -10.4°
Reaches altitude 10° 14:22:12 10° 19° (NNE) 2,365 5.0 -10.0°
Maximum altitude 14:27:25 70° 103° (ESE) 842 3.0 -9.2°
Drops below altitude 10° 14:32:36 10° 187° (S) 2,350 5.3 -8.4°
Sets 14:34:56 0° 190° (S) 3,273 6.0 -8.0°
